Location: Julian California
(33.0790°N, 116.6010°W)
Time: 20:39:10
(UTC-07:00)

Helios 1B rocket - Pass Details

Date: 14 June 2018
Orbit: 576 x 585 km, 98.2° (Epoch: 17 August)

Event Time Altitude Azimuth Distance (km) Brightness Sun altitude
Rises 21:52:31 0° 22° (NNE) 2,798 6.3 -20.0°
Reaches altitude 10° 21:54:49 10° 31° (NNE) 1,894 5.2 -20.3°
Enters shadow 21:57:48 32° 73° (ENE) 991 3.4 -20.7°
